Wind_Speed
19 15 16 20 19 20 22 22 22 23 21 19 21 19 17 15 12 8 4 3 4 4 4 4 4 5 5 6 10 17 15 15 13 11 9 6 5 3 4 6 10 13 13
21 19 16 19 22 24 23 24 24 24 22 21 21 19 18 15 12 7 3 1 3 5 5 3 3 4 5 7 10 16 16 16 13 10 9 7 7 8 9 11 13 15 16
20 21 18 18 22 26 25 24 24 24 22 22 23 21 19 16 12 9 5 2 2 3 6 5 5 4 5 7 11 18 17 17 14 12 10 10 10 11 12 14 15 17 18
19 22 20 19 22 27 27 25 23 24 22 23 24 22 20 18 14 10 6 4 4 4 5 7 5 4 5 6 10 17 17 17 16 14 13 12 13 14 15 17 17 18 19
20 21 21 19 21 28 27 24 22 23 22 24 24 22 21 20 17 12 8 5 5 3 6 7 5 4 5 6 9 14 17 17 17 15 15 15 16 17 18 19 20 19 20
21 20 22 20 22 27 27 23 22 22 22 23 23 21 20 20 18 13 9 7 6 4 7 7 5 4 4 5 7 11 14 16 17 16 17 19 19 20 21 21 21 20 20
22 22 22 19 19 28 27 24 22 22 23 24 24 21 20 19 19 15 11 9 7 4 7 8 7 5 5 5 5 7 10 13 15 16 18 20 20 21 21 20 19 19 19
22 22 21 21 19 27 29 26 23 21 23 24 24 23 20 18 19 17 13 11 9 6 7 8 7 7 6 5 5 6 8 10 12 15 17 18 18 18 19 19 19 19 20
23 25 23 21 23 24 31 28 24 22 23 24 24 24 22 19 18 18 15 12 10 10 7 6 7 6 5 5 5 4 5 7 10 13 15 16 17 17 18 18 18 19 21
23 27 26 23 23 25 25 34 26 24 22 24 25 25 23 21 18 18 17 14 12 11 11 9 8 8 7 6 5 6 7 8 9 10 12 14 16 17 18 19 20 21 22
25 27 30 26 25 25 23 27 28 27 24 22 24 26 25 22 20 19 19 16 14 13 12 11 10 9 8 8 8 8 8 10 12 12 12 13 14 16 18 19 20 22 23
27 27 32 31 28 25 26 27 29 31 29 25 24 25 26 24 21 20 18 19 18 15 14 13 12 10 9 8 8 8 9 11 13 14 15 16 17 17 18 19 20 22 24
30 28 31 35 32 29 27 28 28 31 31 26 25 25 26 26 23 22 20 20 19 18 17 16 14 13 12 11 11 12 12 14 15 16 18 19 19 21 21 22 23 23 24
26 32 30 34 36 32 31 28 27 27 29 27 27 26 28 28 26 24 23 22 21 20 19 18 17 16 16 16 16 16 17 18 20 20 21 22 23 24 24 24 25 25 26
31 29 34 33 37 37 34 33 30 29 30 28 29 28 28 29 29 27 26 25 24 23 22 21 20 20 21 21 22 22 21 22 24 25 25 25 25 26 26 27 27 28 28
37 32 28 37 37 39 38 35 33 30 29 31 32 31 30 29 30 30 30 29 28 27 26 25 25 25 25 25 26 26 26 26 27 28 28 28 28 28 29 29 29 29 30
32 35 31 30 39 39 39 38 36 35 31 30 31 33 32 30 31 32 33 33 31 30 29 29 28 28 29 29 30 30 30 30 30 30 30 30 29 29 30 31 32 31 32
31 31 30 30 40 40 44 41 38 36 35 34 32 31 32 32 31 32 34 34 34 34 33 33 32 32 32 33 33 33 32 32 31 31 32 32 31 31 32 33 34 35 35
33 32 33 31 37 36 41 46 42 39 38 37 35 34 32 33 33 33 34 33 34 35 35 35 35 35 34 34 33 33 32 32 33 34 34 35 35 34 34 35 35 35 36
37 34 36 42 40 40 37 45 48 45 42 39 38 37 36 35 36 36 36 35 33 33 34 34 34 33 34 34 34 34 34 34 36 37 37 36 36 36 36 36 37 37 36
41 39 36 47 38 38 36 47 41 44 48 45 44 43 41 41 40 40 39 37 36 36 36 35 34 35 34 34 34 35 34 35 37 38 37 37 38 37 38 38 37 37 37
42 41 42 40 36 42 42 43 44 44 40 46 45 49 45 47 43 47 42 40 39 39 38 37 37 36 37 37 36 39 37 40 40 40 38 37 38 37 39 39 38 37 37
37 47 43 41 41 37 40 36 42 36 42 42 42 50 48 49 46 49 46 46 44 43 42 41 41 41 41 41 41 40 40 40 44 42 38 37 37 37 37 39 39 40 40
31 36 50 42 42 41 39 43 39 35 39 30 26 35 46 52 55 34 47 46 46 47 45 44 44 45 43 44 43 42 41 43 44 41 40 38 38 39 40 41 41 39 39
32 33 39 45 50 48 41 43 43 43 45 44 37 32 23 25 31 40 54 55 53 51 47 43 46 51 48 45 42 43 44 47 43 40 36 38 42 41 41 42 40 39 39
33 32 32 38 43 51 51 53 48 45 46 45 43 43 43 36 31 34 30 36 42 40 41 43 47 46 48 39 38 41 43 29 26 23 25 37 41 42 44 43 43 43 40
Wind_Direction
197 192 184 179 179 181 179 185 183 179 182 176 169 166 164 167 164 150 125 105 120 119 165 153 164 183 187 199 196 181 176 171 175 172 175 187 207 234 297 312 336 342 341
199 192 193 184 179 180 182 183 186 183 187 181 174 172 172 176 175 170 159 121 146 164 174 173 183 198 213 224 205 189 183 181 189 194 202 223 246 269 290 304 317 320 326
206 194 192 192 184 179 183 187 188 188 190 185 177 179 179 181 183 187 199 234 195 210 213 196 199 219 217 207 199 196 192 195 204 213 227 245 263 276 290 298 304 311 319
209 202 194 196 192 185 183 189 190 190 194 188 181 184 185 185 192 200 212 254 225 222 211 197 194 201 206 205 203 202 202 206 215 228 243 255 268 285 292 299 304 310 319
214 205 202 196 194 189 185 188 193 193 193 190 187 186 190 190 197 204 218 242 218 225 197 186 184 192 207 208 209 208 213 221 228 238 250 263 274 284 292 300 307 312 319
216 205 206 200 190 192 190 191 193 194 194 194 194 190 197 196 202 208 217 228 207 207 188 179 175 186 212 205 209 212 222 230 240 250 261 268 277 287 293 300 307 314 318
217 209 206 204 204 195 198 197 195 196 197 198 198 197 202 201 205 212 218 219 201 194 195 189 180 188 202 206 221 224 233 245 254 261 269 276 283 289 295 301 306 313 317
220 213 211 204 208 201 204 201 200 200 200 202 201 202 206 206 212 218 220 217 198 188 203 192 197 199 205 212 228 241 252 261 268 274 276 281 287 291 296 301 308 312 316
219 213 214 210 210 211 205 203 201 203 204 204 205 207 208 209 216 221 221 219 207 197 197 198 189 200 202 216 220 239 263 285 287 285 284 285 289 294 299 304 307 309 314
220 215 214 214 213 223 218 199 203 205 207 208 208 210 212 211 209 222 222 220 214 213 209 220 217 211 216 229 249 266 280 292 307 319 314 305 301 301 302 305 307 310 312
221 217 215 214 216 220 229 197 207 210 208 214 215 214 215 216 217 219 220 219 219 216 216 221 233 233 238 246 257 274 290 298 303 308 314 313 310 307 308 309 310 312 312
221 219 215 215 216 217 220 218 216 214 211 215 218 220 219 220 220 221 227 223 224 224 219 224 231 243 248 258 272 284 292 299 304 306 306 306 307 310 311 311 313 312 312
226 224 218 217 218 218 219 222 221 223 215 219 220 222 223 223 225 226 224 229 226 229 230 228 232 242 255 265 275 285 294 298 300 302 303 305 305 305 305 306 308 310 312
233 219 223 221 219 220 221 222 222 224 226 220 223 225 225 224 224 229 230 231 232 232 235 236 240 249 257 265 274 280 286 293 299 301 303 303 303 303 303 303 303 305 307
228 230 221 223 220 222 223 223 223 221 223 224 226 228 228 228 226 227 231 233 233 236 238 240 244 251 259 266 271 276 281 287 291 295 297 297 299 299 298 299 300 302 304
220 224 232 220 220 221 226 227 227 229 227 226 226 226 231 227 230 231 232 233 236 238 242 245 249 253 258 263 271 276 279 283 286 290 292 293 294 295 295 295 296 298 300
227 234 239 230 220 219 225 228 229 228 230 233 232 229 228 227 228 233 236 237 238 242 245 249 253 257 263 268 273 277 281 284 286 288 290 290 291 292 293 294 295 295 295
224 231 224 238 224 222 220 225 229 229 230 232 236 237 233 230 230 232 237 239 241 243 246 249 253 257 262 266 271 276 280 283 286 287 287 288 288 289 290 291 292 294 296
228 226 220 220 231 232 235 222 225 229 229 231 233 236 236 238 235 234 235 238 242 245 248 251 254 257 262 266 270 274 280 283 284 284 284 285 286 286 287 289 291 293 295
219 222 225 223 223 234 236 230 223 227 230 230 232 233 237 238 238 236 237 238 240 245 248 251 255 259 262 266 272 277 279 282 283 284 285 286 286 287 288 288 289 291 293
225 221 226 219 218 209 229 228 217 231 230 230 232 233 232 237 237 238 237 237 239 243 249 254 256 259 264 269 272 274 278 281 282 284 287 289 288 288 287 286 288 291 293
232 229 227 233 243 233 219 233 230 229 241 232 235 235 234 235 236 242 241 240 241 244 247 250 255 261 265 268 273 277 280 280 281 282 285 286 286 286 286 288 290 291 290
236 234 232 232 238 239 252 232 229 228 239 239 242 238 237 240 242 242 242 244 245 247 249 253 258 262 267 272 273 275 277 279 282 280 282 282 283 284 287 287 286 285 286
245 240 235 238 238 240 236 241 243 243 237 241 255 250 245 239 243 249 239 246 248 250 252 255 261 266 268 272 275 276 286 280 293 272 275 277 281 282 282 284 286 288 288
240 244 241 240 243 242 243 245 248 248 249 261 261 234 243 244 262 257 261 254 248 248 254 258 262 265 268 267 267 272 281 286 280 274 266 275 278 279 282 284 288 288 288
236 238 241 238 245 246 246 248 249 248 251 253 258 259 259 255 258 252 258 261 256 256 260 261 249 257 263 275 267 275 278 278 276 277 279 264 272 272 277 281 283 283 285
Height
5845 5846 5846 5846 5847 5850 5852 5855 5857 5858 5860 5861 5862 5863 5865 5867 5868 5868 5869 5870 5869 5869 5870 5871 5871 5871 5872 5873 5873 5875 5876 5876 5877 5876 5877 5877 5877 5876 5875 5873 5872 5870 5869
5841 5842 5844 5845 5845 5848 5850 5853 5855 5857 5859 5860 5862 5863 5864 5867 5868 5869 5870 5870 5870 5870 5871 5870 5871 5871 5871 5872 5873 5874 5875 5876 5877 5876 5877 5876 5876 5875 5874 5872 5871 5869 5868
5840 5840 5842 5845 5845 5845 5849 5852 5854 5856 5858 5860 5861 5862 5863 5866 5867 5869 5870 5870 5870 5870 5870 5870 5870 5871 5870 5871 5872 5874 5875 5876 5876 5876 5875 5875 5875 5874 5872 5871 5870 5868 5866
5838 5839 5840 5842 5844 5845 5847 5850 5852 5854 5857 5859 5860 5861 5862 5864 5866 5868 5869 5870 5870 5870 5869 5870 5869 5870 5870 5870 5871 5873 5874 5875 5875 5875 5874 5874 5873 5872 5871 5869 5868 5866 5864
5835 5837 5838 5840 5842 5844 5846 5848 5851 5853 5855 5857 5859 5860 5861 5863 5864 5866 5868 5869 5870 5870 5869 5869 5869 5869 5869 5869 5870 5872 5873 5873 5873 5873 5873 5872 5871 5870 5868 5867 5865 5864 5861
5833 5835 5836 5838 5839 5843 5845 5847 5849 5852 5854 5856 5858 5858 5860 5861 5863 5865 5866 5868 5869 5869 5868 5868 5869 5869 5869 5869 5870 5870 5871 5872 5871 5871 5871 5870 5869 5868 5866 5865 5862 5861 5858
5831 5832 5833 5835 5837 5840 5843 5845 5847 5850 5853 5854 5856 5858 5860 5861 5862 5864 5865 5866 5867 5868 5868 5868 5868 5868 5869 5869 5869 5869 5870 5870 5870 5870 5869 5868 5867 5866 5864 5862 5861 5859 5856
5827 5830 5832 5833 5834 5837 5839 5842 5845 5848 5850 5853 5855 5856 5859 5860 5862 5863 5864 5865 5866 5867 5866 5867 5867 5867 5868 5868 5869 5869 5869 5869 5868 5868 5867 5865 5864 5863 5861 5860 5858 5856 5854
5823 5826 5829 5831 5832 5834 5837 5839 5842 5845 5847 5850 5852 5854 5856 5859 5861 5862 5863 5864 5864 5865 5866 5866 5866 5866 5866 5867 5867 5867 5867 5867 5867 5865 5864 5863 5862 5860 5859 5857 5855 5853 5851
5819 5822 5825 5828 5829 5830 5831 5835 5838 5842 5845 5847 5849 5852 5854 5856 5857 5860 5861 5862 5863 5864 5865 5865 5865 5865 5865 5866 5866 5866 5866 5865 5864 5863 5862 5860 5859 5858 5856 5854 5852 5850 5848
5814 5818 5822 5824 5826 5828 5829 5830 5834 5838 5841 5844 5846 5849 5851 5853 5855 5856 5858 5859 5860 5861 5863 5863 5864 5864 5864 5865 5865 5864 5864 5863 5863 5861 5860 5858 5857 5855 5853 5852 5850 5848 5845
5809 5813 5816 5820 5822 5824 5826 5828 5831 5834 5837 5840 5842 5845 5848 5850 5852 5853 5856 5857 5858 5859 5860 5861 5861 5862 5862 5863 5863 5863 5862 5861 5860 5859 5858 5857 5855 5853 5851 5849 5847 5845 5842
5806 5808 5811 5814 5817 5821 5823 5825 5827 5829 5831 5835 5838 5841 5843 5846 5849 5850 5852 5855 5856 5856 5857 5858 5859 5859 5860 5860 5860 5860 5859 5859 5858 5857 5855 5854 5852 5850 5848 5846 5844 5842 5839
5801 5803 5806 5810 5813 5816 5819 5821 5823 5826 5828 5831 5834 5837 5840 5842 5844 5846 5849 5851 5852 5854 5854 5855 5856 5857 5858 5858 5857 5857 5856 5856 5855 5854 5852 5850 5849 5847 5845 5842 5840 5838 5835
5795 5798 5801 5804 5808 5811 5814 5817 5820 5822 5824 5827 5830 5833 5836 5838 5840 5841 5844 5846 5848 5850 5851 5851 5852 5853 5853 5854 5853 5853 5853 5852 5851 5850 5849 5847 5845 5843 5841 5838 5836 5834 5832
5788 5791 5793 5798 5801 5805 5809 5812 5815 5818 5820 5822 5824 5827 5829 5832 5835 5837 5839 5841 5843 5844 5846 5847 5847 5848 5849 5849 5849 5849 5849 5848 5847 5845 5843 5842 5840 5838 5835 5833 5832 5830 5827
5782 5783 5786 5791 5795 5797 5802 5806 5810 5812 5816 5818 5820 5822 5824 5826 5829 5832 5833 5835 5837 5839 5840 5841 5842 5843 5844 5844 5844 5843 5842 5842 5841 5840 5838 5836 5834 5832 5830 5828 5825 5824 5822
5775 5778 5782 5785 5789 5791 5794 5798 5802 5806 5809 5811 5814 5817 5820 5821 5823 5825 5827 5829 5831 5833 5834 5835 5836 5836 5837 5837 5837 5837 5836 5835 5835 5833 5832 5830 5828 5827 5824 5822 5820 5818 5816
5768 5772 5776 5776 5781 5785 5788 5791 5795 5799 5801 5804 5807 5811 5814 5816 5818 5819 5821 5823 5824 5826 5827 5829 5829 5830 5831 5831 5831 5831 5831 5830 5828 5826 5825 5823 5821 5820 5818 5815 5814 5812 5810
5760 5764 5768 5770 5775 5777 5781 5784 5787 5790 5794 5798 5800 5804 5807 5809 5812 5813 5815 5817 5818 5819 5820 5821 5823 5824 5824 5825 5825 5825 5825 5823 5821 5819 5818 5817 5815 5813 5811 5809 5807 5806 5804
5754 5757 5760 5764 5766 5768 5774 5777 5780 5783 5786 5790 5793 5795 5798 5800 5803 5805 5807 5810 5811 5812 5813 5815 5816 5816 5817 5817 5818 5817 5817 5816 5813 5812 5811 5810 5808 5807 5804 5801 5800 5799 5797
5747 5750 5753 5755 5756 5761 5766 5771 5773 5776 5779 5782 5785 5787 5790 5792 5795 5795 5799 5803 5805 5805 5806 5808 5809 5809 5809 5809 5810 5809 5810 5808 5806 5804 5804 5802 5800 5798 5796 5794 5793 5791 5789
5740 5743 5745 5750 5752 5755 5756 5760 5765 5766 5771 5774 5776 5778 5781 5784 5786 5787 5789 5793 5797 5798 5799 5800 5801 5802 5802 5803 5802 5802 5800 5799 5796 5797 5795 5793 5791 5789 5787 5786 5784 5782 5780
5733 5735 5739 5741 5746 5749 5753 5754 5756 5758 5761 5764 5766 5769 5770 5774 5777 5775 5779 5783 5787 5790 5792 5792 5794 5794 5795 5794 5794 5793 5792 5790 5787 5787 5785 5784 5782 5780 5778 5777 5775 5774 5771
5726 5729 5732 5735 5737 5741 5744 5747 5748 5751 5755 5756 5758 5761 5764 5767 5767 5769 5772 5775 5777 5782 5784 5784 5785 5786 5786 5785 5784 5784 5782 5780 5778 5776 5780 5775 5772 5770 5769 5768 5767 5765 5762
5719 5721 5724 5727 5730 5732 5735 5739 5742 5744 5747 5749 5751 5754 5757 5760 5762 5763 5763 5766 5770 5772 5772 5772 5774 5776 5776 5776 5776 5776 5775 5772 5770 5768 5767 5768 5765 5763 5759 5758 5756 5754 5752